• In Deutschland
  • Länderverzeichnis
  • Für 7 Tage
  • Wassertemperatur
  • Satellitenkarten
  • Wetterkarte
  • Widgets
  • user-avatar
    Anmelden

    Stündliche Wetter Kabul

    Heute, 23 Juli, Sonntag

    Zeit Temperatur Niederschläge Wind Luftdruck Luftfeuchtigkeit
    00:00 +24°C° 0 mm 1 m/S 609 mmHg 31%
    01:00 +24°C° 0 mm 1 m/S 608 mmHg 33%
    02:00 +23°C° 0 mm 1 m/S 608 mmHg 35%
    03:00 +22°C° 0 mm 1 m/S 608 mmHg 34%
    04:00 +22°C° 0 mm 1 m/S 607 mmHg 33%
    05:00 +21°C° 0 mm 1 m/S 607 mmHg 33%
    06:00 +23°C° 0 mm 1 m/S 608 mmHg 28%
    07:00 +24°C° 0 mm 1 m/S 608 mmHg 24%
    08:00 +26°C° 0 mm 1 m/S 609 mmHg 19%
    09:00 +27°C° 0 mm 1 m/S 609 mmHg 17%
    10:00 +28°C° 0 mm 2 m/S 609 mmHg 15%
    11:00 +30°C° 0 mm 2 m/S 610 mmHg 13%
    12:00 +31°C° 0 mm 2 m/S 609 mmHg 12%
    13:00 +32°C° 0 mm 2 m/S 609 mmHg 11%
    14:00 +34°C° 0 mm 2 m/S 609 mmHg 10%
    15:00 +34°C° 0 mm 3 m/S 609 mmHg 10%
    16:00 +34°C° 0 mm 3 m/S 609 mmHg 10%
    17:00 +34°C° 0 mm 3 m/S 609 mmHg 10%
    18:00 +33°C° 0 mm 3 m/S 609 mmHg 12%
    19:00 +30°C° 0 mm 3 m/S 608 mmHg 14%
    20:00 +29°C° 0 mm 3 m/S 608 mmHg 16%
    21:00 +28°C° 0 mm 2 m/S 608 mmHg 18%
    22:00 +27°C° 0 mm 2 m/S 608 mmHg 20%
    23:00 +26°C° 0 mm 2 m/S 608 mmHg 22%

    Morgen, 24 Juli, Montag

    Zeit Temperatur Niederschläge Wind Luftdruck Luftfeuchtigkeit
    00:00 +25°C° 0 mm 2 m/S 608 mmHg 24%
    01:00 +24°C° 0 mm 1 m/S 607 mmHg 26%
    02:00 +23°C° 0 mm 1 m/S 607 mmHg 27%
    03:00 +23°C° 0 mm 1 m/S 606 mmHg 27%
    04:00 +22°C° 0 mm 1 m/S 606 mmHg 27%
    05:00 +22°C° 0 mm 1 m/S 606 mmHg 27%
    06:00 +23°C° 0 mm 1 m/S 607 mmHg 24%
    07:00 +25°C° 0 mm 1 m/S 607 mmHg 20%
    08:00 +26°C° 0 mm 1 m/S 608 mmHg 17%
    09:00 +27°C° 0 mm 1 m/S 608 mmHg 15%
    10:00 +29°C° 0 mm 1 m/S 609 mmHg 14%
    11:00 +30°C° 0 mm 1 m/S 609 mmHg 12%
    12:00 +31°C° 0 mm 2 m/S 609 mmHg 11%
    13:00 +32°C° 0 mm 2 m/S 609 mmHg 10%
    14:00 +34°C° 0 mm 2 m/S 609 mmHg 9%
    15:00 +34°C° 0 mm 2 m/S 609 mmHg 9%
    16:00 +35°C° 0 mm 3 m/S 608 mmHg 9%
    17:00 +35°C° 0 mm 3 m/S 608 mmHg 8%
    18:00 +33°C° 0 mm 3 m/S 608 mmHg 10%
    19:00 +31°C° 0 mm 3 m/S 608 mmHg 13%
    20:00 +29°C° 0 mm 3 m/S 607 mmHg 15%
    21:00 +28°C° 0 mm 2 m/S 607 mmHg 17%
    22:00 +27°C° 0 mm 2 m/S 607 mmHg 19%
    23:00 +26°C° 0 mm 2 m/S 607 mmHg 21%

    übermorgen, 25 Juli, Dienstag

    Zeit Temperatur Niederschläge Wind Luftdruck Luftfeuchtigkeit
    00:00 +25°C° 0 mm 2 m/S 607 mmHg 22%
    01:00 +25°C° 0 mm 1 m/S 606 mmHg 23%
    02:00 +24°C° 0 mm 1 m/S 606 mmHg 24%
    03:00 +23°C° 0 mm 1 m/S 606 mmHg 24%
    04:00 +23°C° 0 mm 1 m/S 605 mmHg 24%
    05:00 +22°C° 0 mm 1 m/S 605 mmHg 24%
    06:00 +24°C° 0 mm 1 m/S 606 mmHg 21%
    07:00 +25°C° 0 mm 1 m/S 607 mmHg 18%
    08:00 +27°C° 0 mm 1 m/S 608 mmHg 15%
    09:00 +28°C° 0 mm 1 m/S 608 mmHg 14%
    10:00 +29°C° 0 mm 1 m/S 608 mmHg 12%
    11:00 +31°C° 0 mm 1 m/S 608 mmHg 11%
    12:00 +32°C° 0 mm 2 m/S 608 mmHg 10%
    13:00 +34°C° 0 mm 2 m/S 608 mmHg 9%
    14:00 +35°C° 0 mm 2 m/S 608 mmHg 8%
    15:00 +35°C° 0 mm 2 m/S 608 mmHg 8%
    16:00 +35°C° 0 mm 3 m/S 608 mmHg 8%
    17:00 +35°C° 0 mm 3 m/S 608 mmHg 8%
    18:00 +34°C° 0 mm 3 m/S 608 mmHg 9%
    19:00 +31°C° 0 mm 3 m/S 608 mmHg 11%
    20:00 +30°C° 0 mm 2 m/S 607 mmHg 13%
    21:00 +29°C° 0 mm 2 m/S 607 mmHg 15%
    22:00 +28°C° 0 mm 2 m/S 607 mmHg 17%
    23:00 +27°C° 0 mm 2 m/S 607 mmHg 19%

    26 Juli, Mittwoch

    Zeit Temperatur Niederschläge Wind Luftdruck Luftfeuchtigkeit
    00:00 +26°C° 0 mm 1 m/S 607 mmHg 21%
    01:00 +25°C° 0 mm 1 m/S 607 mmHg 22%
    02:00 +24°C° 0 mm 1 m/S 606 mmHg 24%
    03:00 +24°C° 0 mm 1 m/S 606 mmHg 24%
    04:00 +23°C° 0 mm 1 m/S 606 mmHg 24%
    05:00 +22°C° 0 mm 1 m/S 606 mmHg 25%
    06:00 +24°C° 0 mm 1 m/S 606 mmHg 22%
    07:00 +26°C° 0 mm 1 m/S 607 mmHg 18%
    08:00 +25°C° 0 mm 0 m/S 608 mmHg 15%
    09:00 +29°C° 0 mm 1 m/S 609 mmHg 14%
    10:00 +30°C° 0 mm 1 m/S 609 mmHg 12%
    11:00 +31°C° 0 mm 1 m/S 609 mmHg 11%
    12:00 +32°C° 0 mm 1 m/S 609 mmHg 10%
    13:00 +34°C° 0 mm 2 m/S 609 mmHg 9%
    14:00 +35°C° 0 mm 2 m/S 609 mmHg 9%
    15:00 +35°C° 0 mm 2 m/S 609 mmHg 8%
    16:00 +36°C° 0 mm 2 m/S 609 mmHg 8%
    17:00 +36°C° 0 mm 3 m/S 609 mmHg 8%
    18:00 +34°C° 0 mm 2 m/S 609 mmHg 9%
    19:00 +32°C° 0 mm 2 m/S 609 mmHg 11%
    20:00 +30°C° 0 mm 2 m/S 609 mmHg 13%
    21:00 +29°C° 0 mm 2 m/S 609 mmHg 16%
    22:00 +28°C° 0 mm 2 m/S 609 mmHg 18%
    23:00 +27°C° 0 mm 1 m/S 609 mmHg 21%

    27 Juli, Donnerstag

    Zeit Temperatur Niederschläge Wind Luftdruck Luftfeuchtigkeit
    00:00 +27°C° 0 mm 1 m/S 608 mmHg 22%
    01:00 +26°C° 0 mm 1 m/S 608 mmHg 24%
    02:00 +25°C° 0 mm 1 m/S 608 mmHg 26%
    03:00 +25°C° 0 mm 1 m/S 608 mmHg 26%
    04:00 +24°C° 0 mm 1 m/S 607 mmHg 27%
    05:00 +23°C° 0 mm 1 m/S 607 mmHg 28%
    06:00 +25°C° 0 mm 1 m/S 608 mmHg 25%
    07:00 +26°C° 0 mm 1 m/S 609 mmHg 23%
    08:00 +28°C° 0 mm 1 m/S 610 mmHg 20%
    09:00 +29°C° 0 mm 1 m/S 610 mmHg 17%
    10:00 +31°C° 0 mm 1 m/S 610 mmHg 14%
    11:00 +32°C° 0 mm 1 m/S 611 mmHg 12%
    12:00 +34°C° 0 mm 2 m/S 611 mmHg 11%
    13:00 +35°C° 0 mm 2 m/S 611 mmHg 10%
    14:00 +36°C° 0 mm 2 m/S 611 mmHg 9%
    15:00 +36°C° 0 mm 3 m/S 610 mmHg 9%
    16:00 +37°C° 0 mm 4 m/S 610 mmHg 9%
    17:00 +37°C° 0 mm 4 m/S 610 mmHg 9%
    18:00 +35°C° 0 mm 4 m/S 610 mmHg 11%
    19:00 +33°C° 0 mm 3 m/S 610 mmHg 13%
    20:00 +31°C° 0 mm 3 m/S 610 mmHg 15%
    21:00 +30°C° 0 mm 3 m/S 609 mmHg 18%
    22:00 +28°C° 0 mm 2 m/S 609 mmHg 20%
    23:00 +27°C° 0 mm 2 m/S 609 mmHg 23%

    28 Juli, Freitag

    Zeit Temperatur Niederschläge Wind Luftdruck Luftfeuchtigkeit
    00:00 +27°C° 0 mm 2 m/S 609 mmHg 24%
    01:00 +26°C° 0 mm 2 m/S 608 mmHg 26%
    02:00 +25°C° 0 mm 1 m/S 608 mmHg 27%
    03:00 +24°C° 0 mm 2 m/S 608 mmHg 27%
    04:00 +24°C° 0 mm 2 m/S 608 mmHg 26%
    05:00 +23°C° 0 mm 2 m/S 608 mmHg 25%
    06:00 +25°C° 0 mm 2 m/S 609 mmHg 22%
    07:00 +26°C° 0 mm 2 m/S 610 mmHg 19%
    08:00 +28°C° 0 mm 2 m/S 610 mmHg 16%
    09:00 +29°C° 0 mm 2 m/S 611 mmHg 14%
    10:00 +31°C° 0 mm 2 m/S 611 mmHg 12%
    11:00 +32°C° 0 mm 2 m/S 611 mmHg 10%
    12:00 +34°C° 0 mm 3 m/S 611 mmHg 10%
    13:00 +35°C° 0 mm 3 m/S 611 mmHg 9%
    14:00 +36°C° 0 mm 3 m/S 611 mmHg 8%
    15:00 +36°C° 0 mm 4 m/S 611 mmHg 9%
    16:00 +36°C° 0 mm 4 m/S 611 mmHg 9%
    17:00 +36°C° 0 mm 5 m/S 610 mmHg 9%
    18:00 +34°C° 0 mm 4 m/S 610 mmHg 11%
    19:00 +32°C° 0 mm 4 m/S 610 mmHg 13%
    20:00 +30°C° 0 mm 4 m/S 610 mmHg 15%
    21:00 +29°C° 0 mm 3 m/S 610 mmHg 16%
    22:00 +28°C° 0 mm 3 m/S 610 mmHg 18%
    23:00 +27°C° 0 mm 2 m/S 610 mmHg 19%
    Mehr zeigen